CAPE
0 0 0 0 0 0 0 0 0 0 0 23 0 153 531 823 1057 1405 1215 534 221 448 175 301 591 136 42 202 1014 1389 2035 1933 1832 1766 1606 1495 1307 1106 840 724 770 759 596 443
0 0 0 0 0 0 0 0 0 0 0 26 0 8 53 433 746 1258 1035 402 204 242 309 458 359 214 127 179 499 951 1488 1676 1723 1512 1468 1307 1137 1001 871 591 402 392 379 433
0 0 0 0 0 0 0 0 0 0 0 14 19 17 244 411 429 483 503 285 192 293 246 476 359 76 13 161 238 336 956 1590 1824 1773 1538 1175 1079 798 541 311 241 167 194 181
0 0 0 0 0 0 0 0 0 0 0 0 0 0 0 146 463 450 363 207 118 146 321 125 71 62 42 129 247 268 930 1752 1873 1520 1373 1003 591 197 169 55 54 60 16 38
0 0 0 0 0 0 0 0 0 0 0 0 0 0 0 0 29 328 406 221 77 346 335 256 196 174 136 100 412 657 1277 1543 1436 1210 876 280 100 61 28 10 6 12 28 48
0 0 0 0 0 0 0 0 0 0 0 0 0 0 0 0 1 35 117 117 102 469 501 347 322 429 332 171 553 1254 1631 1430 1121 593 193 24 9 1 0 12 11 47 36 87
0 0 0 0 0 0 0 0 0 0 0 0 0 0 0 25 164 114 65 251 170 841 969 446 507 538 411 529 1347 1585 1376 1016 614 177 105 22 0 19 54 54 69 52 13 63
0 0 0 0 0 0 0 0 0 0 0 0 0 0 0 35 196 460 65 1064 732 1295 1121 751 797 646 800 1331 1524 1388 856 557 375 183 126 26 61 62 32 58 46 33 15 1
0 0 0 0 0 0 0 0 0 0 0 0 0 0 177 196 1137 1266 1583 1495 922 573 1676 1436 1335 1668 1495 1396 1110 835 592 465 392 265 77 20 0 37 48 75 78 104 128 159
0 0 0 0 0 0 0 0 0 0 0 0 0 35 2 316 1082 956 1013 844 87 0 411 1516 1559 1594 1472 1146 934 704 509 452 324 279 24 0 0 19 78 70 80 71 83 134
0 0 0 0 0 0 0 0 0 0 0 0 0 0 32 262 269 634 399 112 132 11 456 1262 1216 1579 1402 1122 786 437 288 262 263 361 2 12 0 45 80 73 54 57 69 64
0 0 0 0 0 0 0 0 0 0 0 0 0 0 245 171 237 354 304 517 371 223 542 1153 874 1367 1114 842 558 432 360 316 369 372 8 62 45 69 68 77 38 73 58 56
0 0 0 0 0 0 0 0 0 0 0 0 0 0 46 133 143 687 765 835 567 296 659 914 728 823 817 638 599 503 430 446 327 373 121 89 102 157 121 73 26 86 36 0
0 0 0 0 0 0 0 0 0 0 0 0 0 0 11 95 71 129 1046 1068 941 663 607 619 669 668 644 653 582 575 528 540 432 403 267 150 129 195 234 84 13 37 0 0
0 0 0 0 0 0 6 4 8 2 1 0 0 0 0 58 45 76 514 937 354 605 523 543 737 820 712 645 577 566 576 588 591 363 350 231 192 241 241 64 0 9 0 0
108 0 0 0 0 41 32 44 25 99 51 0 0 8 0 0 36 85 218 717 709 469 545 724 743 822 771 700 633 479 419 650 764 466 272 255 254 343 138 31 30 0 0 0
174 136 0 0 0 25 0 8 115 92 57 7 0 7 6 61 84 108 255 104 30 73 239 233 459 689 904 832 665 573 478 513 820 751 323 264 235 67 101 61 23 0 2 0
34 195 166 3 1 0 0 164 178 77 147 345 182 61 50 97 135 227 404 121 89 137 477 42 256 799 1069 924 899 901 901 935 940 782 531 278 63 34 39 9 6 3 0 0
0 68 141 60 1 0 15 95 337 201 37 335 98 46 93 187 354 572 291 172 170 329 663 503 222 964 1031 899 711 676 702 744 700 655 503 399 439 115 77 61 52 29 9 0
0 0 17 112 72 0 29 319 457 153 26 500 93 45 127 387 431 535 393 606 398 430 609 821 651 758 680 605 495 330 63 0 0 445 449 421 271 75 82 82 70 48 29 0
0 0 0 0 7 0 132 467 262 119 44 841 166 198 237 106 82 261 708 761 775 653 687 595 494 436 364 242 78 0 0 0 0 11 541 310 188 103 100 85 74 53 31 2
0 0 0 0 0 0 320 499 306 755 1066 818 369 477 292 212 168 264 942 1087 907 770 580 516 495 401 283 29 0 0 0 0 0 3 120 166 105 103 101 111 76 64 20 28
9 0 0 0 0 27 285 607 731 1013 929 645 514 145 438 258 281 427 602 571 426 462 430 431 297 133 14 0 0 0 0 0 0 0 12 63 81 90 105 38 56 33 7 2
46 144 128 73 47 150 166 157 283 624 635 594 494 348 206 231 220 215 0 85 243 332 243 144 82 1 0 0 0 0 0 0 0 15 44 89 90 59 68 46 16 30 9 2
59 70 80 91 45 87 258 358 162 344 438 394 279 187 127 172 76 3 0 40 116 81 50 3 0 0 0 0 0 0 0 9 16 8 22 9 12 41 36 35 30 8 1 3
41 76 64 75 61 32 36 163 99 76 42 16 0 0 0 0 0 0 44 8 1 22 26 12 0 0 0 0 0 0 0 2 27 13 20 16 13 23 34 20 17 12 2 5
CIN
-0 -0 -0 -0 -0 -0 -0 -0 -0 -0 -0 -229 -0 -202 -233 -291 -250 -160 -87 -59 -42 -475 -468 -224 -177 -466 -299 -226 -63 -80 -58 -65 -44 -39 -36 -26 -28 -17 -14 -24 -21 -13 -17 -16
-0 -0 -0 -0 -0 -0 -0 -0 -0 -0 -0 -280 -0 -328 -495 -356 -283 -167 -113 -98 -613 -638 -309 -146 -74 -251 -408 -49 -63 -85 -57 -60 -60 -37 -25 -13 -10 -6 -6 -10 -23 -26 -19 -56
-0 -0 -0 -0 -0 -0 -0 -0 -0 -0 -0 -314 -231 -164 -450 -485 -558 -280 -165 -142 -598 -585 -188 -66 -79 -44 -19 -55 -152 -44 -36 -51 -36 -21 -12 -19 -6 -8 -13 -33 -46 -28 -69 -33
-0 -0 -0 -0 -0 -0 -0 -0 -0 -0 -0 -0 -0 -0 -0 -342 -430 -456 -185 -103 -155 -615 -482 -375 -224 -53 -30 -40 -88 -159 -57 -29 -19 -19 -2 -4 -3 -17 -50 -52 -57 -50 -78 -88
-0 -0 -0 -0 -0 -0 -0 -0 -0 -0 -0 -0 -0 -0 -0 -0 -241 -323 -351 -308 -278 -102 -454 -417 -173 -72 -67 -43 -73 -38 -51 -33 -41 -10 -6 -48 -53 -56 -70 -68 -33 -45 -48 -62
-0 -0 -0 -0 -0 -0 -0 -0 -0 -0 -0 -0 -0 -0 -0 -19 -46 -59 -335 -275 -43 -83 -143 -267 -186 -53 -58 -61 -73 -59 -30 -27 -37 -76 -123 -188 -105 -50 -9 -43 -47 -32 -28 -41
-0 -0 -0 -0 -0 -0 -0 -0 -0 -0 -0 -0 -0 -0 -0 -116 -171 -180 -28 -43 -21 -57 -185 -44 -41 -78 -111 -77 -130 -49 -31 -64 -107 -150 -168 -118 -0 -83 -14 -43 -46 -36 -36 -26
-0 -0 -0 -0 -0 -0 -0 -0 -0 -0 -0 -0 -0 -0 -0 -252 -134 -322 -217 -239 -296 -189 -162 -54 -43 -62 -203 -118 -61 -33 -86 -132 -150 -187 -184 -232 -132 -86 -19 -71 -81 -58 -64 -4
-0 -0 -0 -0 -0 -0 -0 -0 -0 -0 -0 -0 -0 -0 -122 -193 -218 -265 -211 -123 -205 -31 -84 -162 -197 -129 -106 -93 -63 -96 -112 -140 -145 -186 -250 -233 -0 -147 -63 -69 -81 -59 -39 -32
-0 -0 -0 -0 -0 -0 -0 -0 -0 -0 -0 -0 -0 -98 -26 -105 -156 -193 -148 -143 -115 -0 -234 -112 -157 -146 -122 -105 -78 -85 -116 -132 -149 -143 -277 -0 -0 -74 -101 -88 -74 -70 -52 -40
-0 -0 -0 -0 -0 -0 -0 -0 -0 -0 -0 -0 -0 -0 -48 -75 -333 -107 -230 -51 -38 -161 -90 -107 -124 -128 -71 -65 -108 -157 -181 -143 -148 -123 -62 -241 -0 -149 -127 -91 -86 -65 -59 -36
-0 -0 -0 -0 -0 -0 -0 -0 -0 -0 -0 -0 -0 -0 -92 -61 -241 -206 -152 -73 -66 -64 -209 -88 -119 -148 -94 -77 -118 -130 -130 -156 -123 -116 -136 -169 -142 -119 -130 -108 -110 -65 -62 -65
-0 -0 -0 -0 -0 -0 -0 -0 -0 -0 -0 -0 -0 -0 -159 -107 -234 -313 -168 -96 -89 -103 -72 -66 -72 -104 -63 -74 -85 -76 -73 -123 -149 -128 -160 -125 -122 -66 -73 -86 -115 -44 -70 -0
-0 -0 -0 -0 -0 -0 -0 -0 -0 -0 -0 -0 -0 -0 -320 -108 -87 -424 -305 -191 -198 -159 -55 -55 -82 -55 -49 -39 -69 -55 -88 -88 -113 -113 -136 -133 -99 -51 -35 -70 -112 -72 -0 -0
-0 -0 -0 -0 -0 -0 -68 -85 -80 -38 -17 -0 -0 -0 -0 -146 -90 -65 -380 -252 -129 -180 -185 -110 -71 -59 -50 -34 -26 -62 -85 -95 -75 -118 -122 -121 -83 -43 -28 -61 -0 -80 -0 -0
-76 -0 -0 -0 -0 -115 -82 -57 -49 -26 -20 -0 -0 -23 -0 -0 -116 -448 -431 -277 -177 -206 -172 -77 -65 -77 -143 -37 -29 -51 -63 -98 -55 -61 -106 -53 -77 -39 -62 -64 -60 -0 -0 -0
-82 -56 -0 -0 -11 -107 -0 -87 -31 -26 -25 -35 -0 -38 -318 -754 -696 -86 -106 -155 -224 -414 -275 -307 -326 -123 -122 -29 -28 -71 -54 -75 -43 -44 -38 -27 -71 -145 -91 -59 -52 -0 -75 -0
-109 -62 -48 -35 -26 -0 -0 -53 -40 -29 -62 -58 -50 -40 -286 -584 -572 -130 -114 -209 -577 -294 -367 -103 -373 -166 -79 -32 -63 -70 -57 -43 -38 -40 -17 -7 -64 -72 -69 -52 -51 -34 -0 -0
-6 -83 -35 -56 -27 -0 -74 -80 -99 -90 -36 -101 -50 -27 -271 -514 -526 -121 -210 -109 -433 -97 -122 -55 -206 -88 -54 -38 -37 -40 -53 -45 -60 -46 -32 -14 -1 -53 -56 -35 -29 -20 -27 -0
-0 -0 -53 -33 -44 -0 -69 -282 -217 -130 -27 -293 -34 -297 -219 -190 -170 -305 -336 -99 -84 -98 -96 -108 -107 -75 -58 -72 -65 -46 -96 -0 -0 -55 -19 -9 -4 -12 -5 -40 -28 -17 -7 -0
-0 -0 -0 -0 -28 -0 -296 -167 -212 -6 -25 -154 -19 -415 -253 -217 -102 -337 -219 -162 -71 -57 -103 -84 -97 -96 -115 -113 -116 -0 -0 -0 -0 -4 -0 -8 -11 -9 -7 -2 -11 -8 -2 -1
-0 -0 -0 -0 -0 -0 -141 -117 -25 -101 -109 -59 -20 -263 -326 -239 -216 -222 -143 -116 -78 -79 -86 -105 -104 -99 -92 -74 -0 -0 -0 -0 -0 -52 -40 -11 -1 -5 -6 -3 -2 -0 -3 -13
-23 -0 -0 -0 -0 -94 -60 -113 -109 -112 -107 -51 -42 -40 -159 -172 -179 -92 -15 -87 -108 -87 -85 -95 -110 -72 -44 -0 -0 -0 -0 -0 -0 -0 -2 -5 -0 -7 -0 -8 -1 -37 -17 -1
-38 -64 -45 -64 -51 -33 -41 -36 -187 -137 -121 -93 -71 -42 -248 -186 -165 -75 -0 -8 -61 -95 -69 -51 -62 -3 -0 -0 -0 -0 -0 -0 -4 -16 -0 -0 -0 -0 -6 -17 -9 -2 -24 -29
-37 -39 -38 -44 -26 -26 -36 -107 -21 -96 -111 -134 -175 -130 -100 -73 -59 -25 -0 -106 -32 -46 -54 -23 -0 -0 -0 -0 -0 -0 -0 -17 -22 -0 -0 -6 -12 -0 -4 -0 -3 -23 -19 -3
-33 -39 -23 -36 -41 -5 -4 -132 -83 -150 -9 -9 -0 -0 -0 -0 -0 -0 -152 -83 -15 -39 -76 -98 -66 -0 -0 -0 -0 -0 -0 -6 -1 -0 -0 -0 -3 -3 -0 -5 -4 -30 -0 -1
Wind_Speed
nan nan nan nan nan nan nan nan nan nan nan nan nan 20 23 20 18 25 22 25 25 32 34 32 32 42 nan 11 15 6 3 8 7 8 8 11 16 20 22 22 23 30 31 30
nan nan nan nan nan nan nan nan nan nan nan nan nan nan nan 21 17 30 30 27 27 29 35 26 20 27 36 15 20 9 10 5 9 10 13 12 15 18 25 27 21 16 21 23
nan nan nan nan nan nan nan nan nan nan nan nan nan nan 14 17 20 21 21 26 22 28 38 25 17 nan nan 19 8 15 17 12 13 17 15 13 15 21 28 16 9 11 14 15
nan nan nan nan nan nan nan nan nan nan nan nan nan nan nan 20 22 22 26 25 23 25 32 24 nan nan nan 16 16 29 12 11 11 17 13 14 19 26 18 nan nan nan nan nan
nan nan nan nan nan nan nan nan nan nan nan nan nan nan nan nan nan 15 14 21 nan 23 28 22 22 15 13 17 15 13 14 14 17 13 14 14 21 nan nan nan nan nan nan nan
nan nan nan nan nan nan nan nan nan nan nan nan nan nan nan nan nan nan 17 22 25 22 24 13 11 13 13 14 19 17 19 18 15 10 9 nan nan nan nan nan nan nan nan nan
nan nan nan nan nan nan nan nan nan nan nan nan nan nan nan nan 14 15 nan 21 13 17 14 13 11 10 8 9 15 21 23 23 14 8 9 nan nan nan nan nan nan nan nan nan
nan nan nan nan nan nan nan nan nan nan nan nan nan nan nan nan 17 13 nan 28 32 23 15 4 2 2 5 10 17 19 26 21 11 10 10 nan nan nan nan nan nan nan nan nan
nan nan nan nan nan nan nan nan nan nan nan nan nan nan 15 24 26 34 33 38 42 31 6 16 9 5 9 14 18 21 17 9 14 15 nan nan nan nan nan nan nan 7 4 5
nan nan nan nan nan nan nan nan nan nan nan nan nan nan nan 23 13 19 32 42 nan nan 16 27 9 8 5 13 17 14 11 10 17 19 nan nan nan nan nan nan nan nan nan 3
nan nan nan nan nan nan nan nan nan nan nan nan nan nan nan 25 23 26 31 41 50 nan 33 36 10 11 9 10 11 13 11 11 18 25 nan nan nan nan nan nan nan nan nan nan
nan nan nan nan nan nan nan nan nan nan nan nan nan nan 16 25 27 27 26 35 41 42 37 41 28 29 11 11 12 16 14 20 22 21 nan nan nan nan nan nan nan nan nan nan
nan nan nan nan nan nan nan nan nan nan nan nan nan nan nan 17 23 23 33 36 40 41 35 35 19 21 11 12 13 16 18 18 16 17 22 nan 23 22 18 nan nan nan nan nan
nan nan nan nan nan nan nan nan nan nan nan nan nan nan nan nan nan 27 27 33 37 36 37 32 14 12 2 11 13 16 17 17 15 17 20 21 23 24 21 nan nan nan nan nan
nan nan nan nan nan nan nan nan nan nan nan nan nan nan nan nan nan nan 28 28 34 37 38 22 8 2 2 9 11 14 16 15 13 14 17 22 25 26 23 nan nan nan nan nan
41 nan nan nan nan nan nan nan nan nan nan nan nan nan nan nan nan nan 21 27 35 34 27 14 3 2 6 10 12 13 12 13 14 15 17 23 28 27 22 nan nan nan nan nan
46 46 nan nan nan nan nan nan 39 nan nan nan nan nan nan nan nan 22 24 30 nan nan 23 19 11 13 8 10 8 11 13 14 15 16 17 19 24 nan 21 nan nan nan nan nan
nan 51 47 nan nan nan nan 21 26 nan 37 39 32 nan nan nan 26 26 27 30 nan 28 24 nan 13 14 11 8 7 7 6 12 16 14 17 18 nan nan nan nan nan nan nan nan
nan nan 53 nan nan nan nan nan 35 35 nan 39 nan nan nan 32 29 26 25 33 37 31 26 24 21 19 16 14 11 14 13 12 15 10 14 19 22 20 nan nan nan nan nan nan
nan nan nan 53 nan nan nan 29 28 31 nan 41 nan nan 37 34 30 27 35 43 36 34 30 26 23 22 23 21 18 23 nan nan nan 13 15 17 21 nan nan nan nan nan nan nan
nan nan nan nan nan nan 29 23 23 32 nan 32 41 42 41 38 nan 37 42 41 36 32 28 27 25 25 26 24 nan nan nan nan nan nan 20 23 23 23 25 nan nan nan nan nan
nan nan nan nan nan nan 34 28 28 28 26 33 44 43 50 49 45 38 46 43 36 31 30 27 31 30 30 nan nan nan nan nan nan nan 27 27 28 26 26 31 nan nan nan nan
nan nan nan nan nan nan 36 32 31 29 29 37 45 43 48 50 47 44 41 41 37 31 31 29 31 27 nan nan nan nan nan nan nan nan nan nan nan nan 28 nan nan nan nan nan
nan 46 51 nan nan 45 39 34 32 34 35 35 38 43 44 48 50 55 nan nan 33 34 32 29 nan nan nan nan nan nan nan nan nan nan nan nan nan nan nan nan nan nan nan nan
nan nan nan nan nan nan 39 37 32 35 38 43 41 39 43 44 nan nan nan nan 39 nan nan nan nan nan nan nan nan nan nan nan nan nan nan nan nan nan nan nan nan nan nan nan
nan nan nan nan nan nan nan 38 nan nan nan nan nan nan nan nan nan nan nan nan nan nan nan nan nan nan nan nan nan nan nan nan nan nan nan nan nan nan nan nan nan nan nan nan
Wind_Direction
nan nan nan nan nan nan nan nan nan nan nan nan nan 308 336 337 321 329 337 358 356 331 336 335 333 341 nan 231 180 145 339 360 306 292 328 334 334 312 306 302 298 297 291 286
nan nan nan nan nan nan nan nan nan nan nan nan nan nan nan 318 309 331 337 341 345 340 333 336 330 357 11 229 160 112 86 23 354 321 329 342 326 320 309 307 297 290 284 284
nan nan nan nan nan nan nan nan nan nan nan nan nan nan 306 299 299 310 331 311 340 334 340 350 0 nan nan 322 127 105 76 17 336 326 326 329 320 318 308 314 311 308 289 273
nan nan nan nan nan nan nan nan nan nan nan nan nan nan nan 306 303 310 327 317 338 346 346 350 nan nan nan 334 300 67 53 7 327 325 328 329 328 328 315 nan nan nan nan nan
nan nan nan nan nan nan nan nan nan nan nan nan nan nan nan nan nan 360 351 319 nan 344 358 9 4 348 3 338 339 27 6 349 337 325 318 334 349 nan nan nan nan nan nan nan
nan nan nan nan nan nan nan nan nan nan nan nan nan nan nan nan nan nan 5 1 327 332 341 12 8 357 355 332 331 338 341 329 313 309 326 nan nan nan nan nan nan nan nan nan
nan nan nan nan nan nan nan nan nan nan nan nan nan nan nan nan 300 332 nan 356 333 276 315 330 10 10 342 332 320 344 332 326 319 328 355 nan nan nan nan nan nan nan nan nan
nan nan nan nan nan nan nan nan nan nan nan nan nan nan nan nan 266 313 nan 276 290 243 250 321 129 327 349 343 354 347 341 329 331 356 1 nan nan nan nan nan nan nan nan nan
nan nan nan nan nan nan nan nan nan nan nan nan nan nan 271 284 266 271 281 293 299 201 169 295 296 290 9 2 353 357 357 352 11 357 nan nan nan nan nan nan nan 37 6 351
nan nan nan nan nan nan nan nan nan nan nan nan nan nan nan 291 295 307 301 313 nan nan 7 341 268 311 11 7 359 351 17 5 6 355 nan nan nan nan nan nan nan nan nan 319
nan nan nan nan nan nan nan nan nan nan nan nan nan nan nan 307 310 327 325 328 327 nan 357 349 329 308 346 23 355 339 323 345 348 342 nan nan nan nan nan nan nan nan nan nan
nan nan nan nan nan nan nan nan nan nan nan nan nan nan 281 299 312 312 315 328 334 327 344 340 325 307 341 340 343 344 332 310 324 330 nan nan nan nan nan nan nan nan nan nan
nan nan nan nan nan nan nan nan nan nan nan nan nan nan nan 297 298 304 328 336 330 347 336 326 269 268 290 315 322 340 338 324 321 323 332 nan 343 343 344 nan nan nan nan nan
nan nan nan nan nan nan nan nan nan nan nan nan nan nan nan nan nan 314 327 341 336 334 335 327 246 241 359 322 332 333 331 317 322 322 327 337 346 346 342 nan nan nan nan nan
nan nan nan nan nan nan nan nan nan nan nan nan nan nan nan nan nan nan 333 326 316 337 344 8 30 295 1 341 327 327 319 308 323 329 329 337 340 343 338 nan nan nan nan nan
241 nan nan nan nan nan nan nan nan nan nan nan nan nan nan nan nan nan 320 317 323 335 347 360 348 337 330 325 316 323 313 308 310 323 334 333 329 331 330 nan nan nan nan nan
240 245 nan nan nan nan nan nan 245 nan nan nan nan nan nan nan nan 318 320 320 nan nan 5 332 289 289 299 295 338 321 307 298 308 314 320 319 319 nan 322 nan nan nan nan nan
nan 244 246 nan nan nan nan 257 246 nan 248 255 259 nan nan nan 260 274 276 296 nan 310 307 nan 270 273 278 285 284 297 317 292 284 307 314 315 nan nan nan nan nan nan nan nan
nan nan 246 nan nan nan nan nan 249 241 nan 252 nan nan nan 270 266 271 284 293 301 297 294 292 281 279 277 277 296 313 304 292 265 247 305 310 309 310 nan nan nan nan nan nan
nan nan nan 254 nan nan nan 248 247 249 nan 237 nan nan 279 272 275 282 284 294 291 294 298 292 280 279 285 286 295 297 nan nan nan 259 246 285 293 nan nan nan nan nan nan nan
nan nan nan nan nan nan 237 218 236 258 nan 234 256 254 263 265 nan 282 284 281 281 284 281 282 281 280 278 286 nan nan nan nan nan nan 269 257 265 273 276 nan nan nan nan nan
nan nan nan nan nan nan 229 228 244 254 244 243 248 252 255 257 255 254 275 273 270 275 277 284 280 276 280 nan nan nan nan nan nan nan 281 275 269 272 273 280 nan nan nan nan
nan nan nan nan nan nan 244 241 233 244 254 258 262 264 266 258 259 254 242 255 263 268 268 274 280 279 nan nan nan nan nan nan nan nan nan nan nan nan 279 nan nan nan nan nan
nan 242 245 nan nan 249 249 250 245 242 261 261 267 276 278 277 274 269 nan nan 242 248 260 267 nan nan nan nan nan nan nan nan nan nan nan nan nan nan nan nan nan nan nan nan
nan nan nan nan nan nan 255 254 258 252 252 261 259 266 273 279 nan nan nan nan 267 nan nan nan nan nan nan nan nan nan nan nan nan nan nan nan nan nan nan nan nan nan nan nan
nan nan nan nan nan nan nan 257 nan nan nan nan nan nan nan nan nan nan nan nan nan nan nan nan nan nan nan nan nan nan nan nan nan nan nan nan nan nan nan nan nan nan nan nan